Flag for Germany Weather past 2 weeks in Schwerin, Mecklenburg-Western Pomerania, Germany

Now
60 °F

Light rain. Overcast.


Feels Like: 59 °F
Forecast: 51 / 64 °F
Wind: 8 mph from West

Location: Schwerin

Current Time: Jul 30, 2015 at 6:14:34 PM

Latest Report: Jul 30, 2015 at 6:00 PM


Visibility: 11 mi

Pressure: 29.84 "Hg

Humidity: 70%

Dew point: 50 °F

Location of SchwerinLocation

Historic Weather in Schwerin — Graph

°F

Schwerin temperature yesterday

Maximum temperature yesterday: 63 °F (at 4:00 PM)
Minimum temperature yesterday: 55 °F (at 6:00 AM)
Average temperature yesterday: 58 °F

Past Weeks' High & Low Weather Summary

 TemperatureHumidityPressure
High86 °F (Jul 17, 6:00 PM)99% (Jul 24, 5:00 AM)30.09 "Hg (Jul 24, 5:00 AM)
Low51 °F (Jul 24, 4:00 AM)37% (Jul 24, 3:00 PM)29.44 "Hg (Jul 25, 2:00 PM)
Average63 °F74%29.82 "Hg
* Reported Jul 15 4:00 PM — Jul 30 4:00 PM, Schwerin, Weather by CustomWeather, © 2015

Note: Actual official high and low records may vary slightly from our data, if they occured in-between our weather recording intervals... More about our weather records

Advertising

Schwerin weather history for previous 24 hours

 ConditionsComfort  
Time TempWeatherWind HumidityBarometerVisibility
4:00 PM
Thu, Jul 30
58 °FDrizzle. Overcast.10 mph75%29.83 "Hg17 mi
3:00 PM59 °FOvercast.10 mph75%29.80 "Hg22 mi
2:00 PM58 °FLight rain. Overcast.8 mph82%29.79 "Hg8 mi
1:00 PM58 °FLight rain. Overcast.7 mph84%29.78 "Hg12 mi
12:00 PM58 °FLight rain. Overcast.10 mph80%29.75 "Hg14 mi
10:00 AM55 °FDrizzle. Overcast.9 mph91%29.72 "Hg13 mi
9:00 AM54 °FLight freezing rain. Low clouds.9 mph97%29.69 "Hg2 mi
8:00 AM54 °FLight freezing rain. Low clouds.9 mph96%29.67 "Hg3 mi
7:00 AM54 °FDrizzle. Low clouds.9 mph95%29.66 "Hg3 mi
4:00 AM54 °FDrizzle. Overcast.9 mph94%29.64 "Hg5 mi
3:00 AM54 °FOvercast.9 mph95%29.64 "Hg10 mi
2:00 AM54 °FDrizzle. Overcast.8 mph95%29.62 "Hg8 mi
1:00 AM54 °FLight rain. Overcast.10 mph95%29.62 "Hg4 mi
12:00 AM53 °FLight rain. Low clouds.9 mph96%29.60 "Hg4 mi
10:00 PM
Wed, Jul 29
55 °FOvercast.8 mph84%29.61 "Hg22 mi
9:00 PM56 °FOvercast.8 mph76%29.62 "Hg28 mi
8:00 PM58 °FPartly sunny.9 mph68%29.62 "Hg16 mi
7:00 PM57 °FLight rain. Overcast.9 mph79%29.63 "Hg11 mi
6:00 PM61 °FOvercast.9 mph62%29.62 "Hg25 mi
Weather by CustomWeather, © 2015

See weather overviewHow to use our weather pages